This is the latest recevied weather packets stored in our database for station/object KD9JB-1. If no packets are shown the sender has not sent any weather packets the latest 10 day(s).
| Time | Temp. | Humidity | Pressure | Rain* | Wind** | Luminosity | Snow |
|---|---|---|---|---|---|---|---|
| 1777923998 | 26.11° C | 41% | 1007.4 hPa | 0 mm | - | - | - |
| 1777923698 | 26.11° C | 42% | 1007.3 hPa | 0 mm | - | - | - |
| 1777923398 | 26.11° C | 43% | 1007.4 hPa | 0 mm | - | - | - |
| 1777923098 | 26.67° C | 43% | 1007.4 hPa | 0 mm | - | - | - |
| 1777922798 | 26.11° C | 44% | 1007.4 hPa | 0 mm | - | - | - |
| 1777922498 | 26.11° C | 44% | 1007.5 hPa | 0 mm | - | - | - |
| 1777922198 | 26.11° C | 42% | 1007.5 hPa | 0 mm | - | - | - |
| 1777921898 | 26.11° C | 43% | 1007.5 hPa | 0 mm | - | - | - |
| 1777921598 | 25.56° C | 43% | 1007.6 hPa | 0 mm | - | - | - |
| 1777921298 | 26.11° C | 47% | 1007.6 hPa | 0 mm | - | - | - |
| 1777920998 | 25.56° C | 44% | 1007.7 hPa | 0 mm | - | - | - |
| 1777920698 | 25.56° C | 43% | 1007.8 hPa | 0 mm | - | - | - |
| 1777920398 | 26.11° C | 43% | 1007.9 hPa | 0 mm | - | - | - |
| 1777920098 | 25.56° C | 45% | 1008 hPa | 0 mm | - | - | - |
| 1777919798 | 25.56° C | 45% | 1008 hPa | 0 mm | - | - | - |
| 1777919498 | 25.56° C | 41% | 1008 hPa | 0 mm | - | - | - |
| 1777919198 | 26.11° C | 42% | 1007.9 hPa | 0 mm | - | - | - |
| 1777918898 | 26.11° C | 45% | 1008 hPa | 0 mm | - | - | - |
| 1777918598 | 26.11° C | 44% | 1008.1 hPa | 0 mm | - | - | - |
| 1777918298 | 26.11° C | 45% | 1008.1 hPa | 0 mm | - | - | - |
| 1777917998 | 26.11° C | 43% | 1008.3 hPa | 0 mm | - | - | - |
| 1777917698 | 26.11° C | 44% | 1008.3 hPa | 0 mm | - | - | - |
| 1777917398 | 26.11° C | 45% | 1008.5 hPa | 0 mm | - | - | - |
| 1777917098 | 25.56° C | 46% | 1008.3 hPa | 0 mm | - | - | - |
| 1777916798 | 25.56° C | 44% | 1008.5 hPa | 0 mm | - | - | - |
* Rain latest hour (hover to see other rain measurements)
** Current wind speed in m/s (hover to see current wind gust speed)